Content
SEND FEEDBACK

United States of America Flag

PORT WING, WISCONSIN


Home > North America > United States > Wisconsin
Elevation: 700 feet     Latitude: 46 46N     Longitude: 091 24W

WEATHER
 
SELECT A DAY
Number of Records: 497,944;   Date Range: 1/1/95 - 3/22/16
 
SHARE

PRINT THIS DATA

[ ← Previous Day ]
WEATHER ALMANAC - FEBRUARY 14, 2013
[ Next Day → ]
[ °C ]   °F
Weather ElementAverageHighLow
Temperature19 °F24.8 °F (3:32 am)10.4 °F (10:51 pm)
Dewpoint8.6 °F17.6 °F (12:32 am)-0.4 °F (8:11 pm)
Humidity65 %86 % (12:32 am)46 % (2:32 pm)
Barometer29.84 in30.05 in (11:12 pm)29.63 in (12:51 am)
Wind Speed4.6 mph11.5 mph (1:11 pm)
Wind Gust20.7 mph (2:32 pm)
Weather ElementAverage
Visibility10 mi
Wind DirectionWSW (231.5 °)

Weather ElementTotal
Precipitation---
Heating Degree Days47.4 (Base 65)
Averaged from 71 records on February 14, 2013
WEATHER CONDITIONS BREAKOUT
WIND DIRECTION BREAKOUT
WEATHER BY HOUR - FEBRUARY 14, 2013
[ °C ]   °F
Local TimeTemperatureDewpointHumidityBarometerVisibilityWind DirectionWind SpeedGust SpeedPrecipitationEventsConditions
12:32 AM21.2 °F17.6 °F86 %29.64 in10.0 miNNW (340°)3.5 mphScattered Clouds
12:51 AM21.2 °F15.8 °F80 %29.63 in10.0 miWNW (300°)3.5 mphScattered Clouds
1:11 AM21.2 °F15.8 °F80 %29.63 in10.0 miNW (310°)3.5 mphMostly Cloudy
1:32 AM21.2 °F17.6 °F86 %29.64 in10.0 miNW (310°)4.6 mphOvercast
1:51 AM21.2 °F17.6 °F86 %29.64 in10.0 miWNW (300°)3.5 mphOvercast
2:11 AM21.2 °F15.8 °F80 %29.65 in10.0 miCalmOvercast
2:32 AM23.0 °F17.6 °F80 %29.65 in10.0 miCalmOvercast
2:51 AM23.0 °F17.6 °F80 %29.65 in10.0 miCalmOvercast
3:11 AM23.0 °F17.6 °F80 %29.65 in10.0 miCalmOvercast
3:32 AM24.8 °F17.6 °F74 %29.65 in10.0 miCalmOvercast
3:51 AM23.0 °F17.6 °F80 %29.65 in10.0 miCalmOvercast
4:11 AM23.0 °F17.6 °F80 %29.65 in10.0 miCalmOvercast
4:32 AM21.2 °F17.6 °F86 %29.66 in10.0 miCalmOvercast
4:51 AM21.2 °F17.6 °F86 %29.67 in10.0 miCalmOvercast
5:11 AM23.0 °F17.6 °F80 %29.67 in10.0 miCalmOvercast
5:32 AM23.0 °F17.6 °F80 %29.68 in10.0 miCalmOvercast
5:51 AM23.0 °F17.6 °F80 %29.68 in10.0 miNNW (330°)3.5 mphMostly Cloudy
6:11 AM21.2 °F17.6 °F86 %29.69 in10.0 miNNW (330°)3.5 mphScattered Clouds
6:31 AM23.0 °F17.6 °F80 %29.70 in10.0 miNNW (340°)5.8 mphMostly Cloudy
6:51 AM23.0 °F17.6 °F80 %29.70 in10.0 miNNW (340°)4.6 mphMostly Cloudy
7:11 AM23.0 °F17.6 °F80 %29.72 in10.0 miNNW (330°)5.8 mphOvercast
7:31 AM24.8 °F17.6 °F74 %29.72 in10.0 miNorth (350°)4.6 mphOvercast
7:51 AM24.8 °F17.6 °F74 %29.73 in10.0 miNNW (330°)5.8 mphOvercast
8:11 AM24.8 °F17.6 °F74 %29.74 in10.0 miNorth (350°)3.5 mphOvercast
8:31 AM24.8 °F17.6 °F74 %29.75 in10.0 miNorth (350°)6.9 mphOvercast
8:51 AM23.0 °F15.8 °F74 %29.76 in10.0 miNW (320°)9.2 mphOvercast
9:12 AM21.2 °F15.8 °F80 %29.77 in10.0 miNorth (350°)8.1 mphOvercast
9:31 AM21.2 °F14.0 °F74 %29.78 in10.0 miNW (320°)9.2 mphOvercast
9:51 AM19.4 °F12.2 °F74 %29.79 in10.0 miNNW (330°)9.2 mphOvercast
10:12 AM19.4 °F10.4 °F68 %29.80 in10.0 miNNW (340°)8.1 mph17.3 mphSnowLight Snow
10:31 AM19.4 °F8.6 °F63 %29.81 in10.0 miNNW (330°)4.6 mph16.1 mphMostly Cloudy
10:51 AM17.6 °F8.6 °F68 %29.81 in10.0 miNNW (340°)10.4 mph18.4 mphMostly Cloudy
11:12 AM19.4 °F8.6 °F63 %29.82 in10.0 miNNW (340°)10.4 mph17.3 mphSnowLight Snow
11:31 AM17.6 °F6.8 °F63 %29.83 in10.0 miNW (320°)10.4 mphScattered Clouds
11:51 AM19.4 °F6.8 °F58 %29.83 in10.0 miNW (320°)9.2 mphClear
12:11 PM19.4 °F6.8 °F58 %29.84 in10.0 miNW (310°)10.4 mph16.1 mphClear
12:31 PM17.6 °F5.0 °F58 %29.85 in10.0 miNNW (340°)8.1 mph18.4 mphClear
12:52 PM17.6 °F5.0 °F58 %29.85 in10.0 miNNW (330°)8.1 mph18.4 mphClear
1:11 PM17.6 °F3.2 °F53 %29.86 in10.0 miNorth (350°)11.5 mph18.4 mphClear
1:31 PM17.6 °F3.2 °F53 %29.86 in10.0 miNNW (340°)8.1 mphClear
1:52 PM19.4 °F5.0 °F54 %29.87 in10.0 miNorth (350°)5.8 mphClear
2:11 PM19.4 °F3.2 °F49 %29.87 in10.0 miNNW (330°)9.2 mph18.4 mphClear
2:32 PM21.2 °F3.2 °F46 %29.88 in10.0 miNorth (350°)11.5 mph20.7 mphClear
2:51 PM21.2 °F3.2 °F46 %29.89 in10.0 miNW (320°)9.2 mphClear
3:11 PM21.2 °F3.2 °F46 %29.90 in10.0 miNNW (340°)9.2 mph17.3 mphClear
3:31 PM21.2 °F3.2 °F46 %29.91 in10.0 miNW (310°)4.6 mphClear
3:51 PM19.4 °F3.2 °F49 %29.92 in10.0 miNorth (350°)4.6 mphClear
4:11 PM19.4 °F3.2 °F49 %29.93 in10.0 miNW (310°)6.9 mphClear
4:31 PM19.4 °F1.4 °F46 %29.94 in10.0 miNW (320°)5.8 mphScattered Clouds
4:51 PM19.4 °F3.2 °F49 %29.95 in10.0 miNNW (330°)5.8 mphMostly Cloudy
5:11 PM19.4 °F3.2 °F49 %29.96 in10.0 miNNW (330°)5.8 mphScattered Clouds
5:32 PM17.6 °F3.2 °F53 %29.98 in10.0 miNW (320°)8.1 mphClear
5:51 PM17.6 °F1.4 °F49 %29.98 in10.0 miNW (320°)5.8 mphClear
6:11 PM15.8 °F1.4 °F53 %29.99 in10.0 miNW (320°)9.2 mphClear
6:32 PM15.8 °F1.4 °F53 %30.00 in10.0 miNW (310°)5.8 mphClear
6:51 PM15.8 °F1.4 °F53 %30.00 in10.0 miNW (320°)3.5 mphMostly Cloudy
7:11 PM15.8 °F1.4 °F53 %30.00 in10.0 miNW (310°)3.5 mphOvercast
7:31 PM15.8 °F1.4 °F53 %30.01 in10.0 miWNW (300°)4.6 mphOvercast
7:51 PM15.8 °F1.4 °F53 %30.01 in10.0 miNNW (340°)4.6 mphMostly Cloudy
8:11 PM14.0 °F-0.4 °F53 %30.01 in10.0 miNNW (340°)3.5 mphScattered Clouds
8:31 PM14.0 °F-0.4 °F53 %30.02 in10.0 miCalmClear
8:51 PM14.0 °F-0.4 °F53 %30.02 in10.0 miNNW (330°)3.5 mphClear
9:12 PM12.2 °F-0.4 °F57 %30.03 in10.0 miCalmClear
9:31 PM12.2 °F-0.4 °F57 %30.03 in10.0 miCalmClear
9:51 PM12.2 °F-0.4 °F57 %30.03 in10.0 miCalmScattered Clouds
10:12 PM12.2 °F-0.4 °F57 %30.04 in10.0 miCalmOvercast
10:31 PM12.2 °F-0.4 °F57 %30.04 in10.0 miCalmOvercast
10:51 PM10.4 °F-0.4 °F62 %30.04 in10.0 miCalmOvercast
11:12 PM10.4 °F-0.4 °F62 %30.05 in10.0 miCalmOvercast
11:31 PM10.4 °F-0.4 °F62 %30.05 in10.0 miCalmOvercast
11:51 PM10.4 °F-0.4 °F62 %30.04 in10.0 miCalmOvercast
Hourly data recorded from KTWM, located miles away from Port Wing, Wisconsin




STORIES FROM OUR PARTNERS